Location: Lac Echo
(45.9375°N, 75.4580°W)
Time: 04:58:53
(UTC-05:00)

Amateur Radio Satellites - All Passes

Search period start: 11 December 2016 04:28
Search period end: 12 December 2016 04:28
Location: Lac Echo, 45.9375°N, 75.4580°W

Satellite Date Start Highest point End Downlink Frequencies (MHz)
Time Altitude Azimuth
KKS-1 11 Dec 04:30:43 04:34:01 20° 267° (W) 04:37:21 437.445
Cosmos 2491 11 Dec 04:36:23 04:41:29 17° 74° (ENE) 04:46:34 435.465 / 435.565
AIST 1 11 Dec 04:40:58 04:42:33 12° 64° (ENE) 04:44:10
GOMX 1 11 Dec 04:47:17 04:51:22 21° 90° (E) 04:55:24 467.674
CUBESAT XI-V 11 Dec 04:58:30 05:02:32 30° 265° (W) 05:06:37 437.345
ITAMSAT 1 11 Dec 05:03:18 05:06:23 16° 303° (WNW) 05:09:27 435.822/435.867
BEESAT 2 11 Dec 05:04:01 05:07:49 45° 311° (NW) 05:11:42 435.950
RS-15 11 Dec 05:04:55 05:14:04 28° 101° (E) 05:23:29 29.354- 29.394
Cosmos 2504 11 Dec 05:25:26 05:33:36 41° 69° (ENE) 05:41:17 435.465 / 435.565
HORYU 2 11 Dec 05:31:37 05:36:04 73° 103° (ESE) 05:40:28 437.375
CUTE-I 11 Dec 05:37:21 05:41:51 27° 94° (E) 05:46:18 437.470
BRITE-PL 11 Dec 05:39:22 05:44:53 72° 286° (WNW) 05:50:33 437.365/2234.400
NOAA 15 11 Dec 05:41:24 05:46:07 32° 96° (E) 05:50:49 137.62
YUBILEINY 11 Dec 05:55:40 06:04:32 81° 264° (W) 06:13:21 435.215
STRAND 1 11 Dec 05:59:14 06:04:11 51° 70° (ENE) 06:09:08 437.568
BEESAT 3 11 Dec 06:03:36 06:04:57 11° 331° (NNW) 06:06:17 437.485
Cubesat XI-IV 11 Dec 06:04:48 06:09:55 46° 99° (E) 06:15:01 437.490
DOVE 4 11 Dec 06:06:04 06:11:08 44° 97° (E) 06:15:57 437.250
AIST 1 11 Dec 06:16:21 06:20:47 79° 262° (W) 06:25:10
AO-7 11 Dec 06:16:50 06:22:52 23° 313° (NW) 06:28:54 29.400- 29.500
GOMX 1 11 Dec 06:24:23 06:29:50 62° 288° (WNW) 06:35:12 467.674
Cosmos 2491 11 Dec 06:28:04 06:36:50 79° 96° (E) 06:45:35 435.465 / 435.565
HO-68 11 Dec 06:31:32 06:36:29 19° 89° (E) 06:41:24 435.675
NOAA 18 11 Dec 06:34:09 06:39:34 52° 100° (E) 06:44:56 137.9125
LilacSat-2 11 Dec 06:34:51 06:38:36 68° 285° (WNW) 06:42:20 437.200
AIST 2 11 Dec 06:43:25 06:47:27 56° 121° (ESE) 06:51:33 435.215
CINEMA 3 11 Dec 06:43:32 06:47:28 26° 93° (E) 06:51:14 145.822/145.860
BEESAT 2 11 Dec 06:45:56 06:46:37 10° 333° (NNW) 06:47:20 435.950
CUTE 1.7 + AOD 2 11 Dec 06:49:36 06:52:20 17° 91° (E) 06:55:04 437.475
PRISM 11 Dec 06:54:16 06:55:49 12° 59° (ENE) 06:57:21 437.425
CANX-2 11 Dec 07:08:06 07:11:50 29° 96° (E) 07:15:32 2200.000
HORYU 2 11 Dec 07:09:42 07:12:03 14° 301° (WNW) 07:14:23 437.375
RS-15 11 Dec 07:13:01 07:24:54 90° 124° (SE) 07:37:20 29.354- 29.394
CUTE-I 11 Dec 07:17:01 07:22:04 44° 292° (WNW) 07:27:05 437.470
Cosmos 2504 11 Dec 07:18:52 07:27:12 51° 272° (W) 07:35:02 435.465 / 435.565
BRITE-PL 11 Dec 07:20:00 07:22:27 13° 304° (NW) 07:24:57 437.365/2234.400
NOAA 15 11 Dec 07:21:05 07:25:56 38° 294° (WNW) 07:30:47 137.62
COMPASS 1 11 Dec 07:21:25 07:24:09 17° 91° (E) 07:26:52 437.405
SEEDS 11 Dec 07:21:33 07:25:01 24° 94° (E) 07:28:28 437.485
STRAND 1 11 Dec 07:39:39 07:43:38 23° 267° (W) 07:47:38 437.568
DOVE 4 11 Dec 07:44:08 07:48:33 28° 296° (WNW) 07:52:51 437.250
Cubesat XI-IV 11 Dec 07:45:19 07:49:46 28° 297° (WNW) 07:54:12 437.490
Oscar 11 11 Dec 07:50:46 07:51:46 11° 87° (E) 07:52:45 145.826/435.025
YUBILEINY 11 Dec 07:54:33 07:59:51 18° 286° (WNW) 08:05:09 435.215
CUBEBUG 2 11 Dec 07:59:07 08:03:10 36° 97° (E) 08:07:04 437.445
TIGRISAT 11 Dec 08:03:02 08:05:51 16° 61° (ENE) 08:08:39 435.000
GOMX 1 11 Dec 08:05:16 08:06:49 11° 306° (NW) 08:08:23 467.674
ANTELSAT 11 Dec 08:05:44 08:08:49 18° 62° (ENE) 08:11:54 437.575/2403.000
NOAA 18 11 Dec 08:15:23 08:19:55 26° 299° (WNW) 08:24:25 137.9125
HO-68 11 Dec 08:17:49 08:25:05 86° 288° (WNW) 08:32:17 435.675
AAUSAT CUBESAT 2 11 Dec 08:19:35 08:23:40 54° 100° (E) 08:27:45 437.432
CINEMA 3 11 Dec 08:20:20 08:24:43 37° 292° (WNW) 08:28:53 145.822/145.860
AIST 2 11 Dec 08:22:58 08:26:15 22° 321° (NW) 08:29:33 435.215
CUTE 1.7 + AOD 2 11 Dec 08:24:22 08:28:27 49° 288° (WNW) 08:32:32 437.475
PRISM 11 Dec 08:26:25 08:30:30 77° 258° (WSW) 08:34:38 437.425
AO-85 11 Dec 08:27:38 08:31:24 36° 46° (NE) 08:35:01 145.980
Cosmos 2491 11 Dec 08:27:41 08:34:42 26° 298° (WNW) 08:41:45 435.465 / 435.565
UWE-3 11 Dec 08:29:10 08:33:19 49° 99° (E) 08:37:21 435.000/436.395/437.385
GONETS M04 11 Dec 08:40:17 08:43:02 12° 48° (NE) 08:45:47
CANX-2 11 Dec 08:44:01 08:47:36 28° 293° (WNW) 08:51:12 2200.000
JAS-2 11 Dec 08:47:56 08:51:05 15° 57° (ENE) 08:54:06 435.910
COMPASS 1 11 Dec 08:55:56 08:59:57 47° 288° (WNW) 09:03:58 437.405
ZACube-1 11 Dec 08:56:57 09:01:07 60° 100° (E) 09:05:12 437.345
SEEDS 11 Dec 08:57:00 09:00:45 32° 291° (WNW) 09:04:30 437.485
FUNcube-1 11 Dec 09:01:12 09:05:22 61° 100° (E) 09:09:27 145.935
CUSAT 1 11 Dec 09:06:55 09:09:33 44° 283° (WNW) 09:12:04 437.405
DANDE 11 Dec 09:07:50 09:11:12 30° 98° (E) 09:13:57 436.750
UNISAT 6 11 Dec 09:09:16 09:13:53 70° 74° (ENE) 09:18:28 437.425
PCSat 11 Dec 09:11:41 09:15:27 19° 106° (ESE) 09:19:13 145.827
POPSAT HIP 1 11 Dec 09:19:33 09:20:58 11° 58° (ENE) 09:22:23 437.405
Oscar 11 11 Dec 09:24:08 09:28:27 79° 283° (WNW) 09:32:45 145.826/435.025
RS-15 11 Dec 09:27:56 09:39:08 41° 333° (NNW) 09:50:39 29.354- 29.394
HUMSAT D 11 Dec 09:33:21 09:36:47 25° 95° (E) 09:40:12 437.325/437.525
CUBEBUG 2 11 Dec 09:36:09 09:39:35 23° 295° (WNW) 09:42:57 437.445
TIGRISAT 11 Dec 09:37:23 09:42:02 68° 258° (WSW) 09:46:38 435.000
ANTELSAT 11 Dec 09:40:30 09:45:06 60° 259° (W) 09:49:40 437.575/2403.000
AAUSAT CUBESAT 2 11 Dec 09:56:10 09:58:44 16° 297° (WNW) 10:01:19 437.432
Cosmos 2499 11 Dec 10:00:28 10:08:12 36° 67° (ENE) 10:15:25 435.465 / 435.565
DELFI C3 11 Dec 10:01:54 10:05:54 79° 284° (WNW) 10:09:54 145.870
UWE-3 11 Dec 10:06:33 10:09:25 18° 297° (WNW) 10:12:13 435.000/436.395/437.385
HO-68 11 Dec 10:06:48 10:11:51 21° 308° (NW) 10:16:54 435.675
NANOSAT C BR1 11 Dec 10:07:07 10:10:52 31° 68° (ENE) 10:14:38 145.865
AO-85 11 Dec 10:08:24 10:11:37 24° 245° (WSW) 10:14:45 145.980
QB50P2 11 Dec 10:18:26 10:22:32 45° 71° (ENE) 10:26:38 145.880/145.840
POLYITAN 1 11 Dec 10:18:50 10:22:54 43° 70° (ENE) 10:26:58 437.675
DUCHIFAT 1 11 Dec 10:25:50 10:29:53 44° 70° (ENE) 10:33:56 145.980
JAS-2 11 Dec 10:29:26 10:35:33 87° 75° (ENE) 10:41:04 435.910
QB50P1 11 Dec 10:29:45 10:33:56 56° 73° (ENE) 10:38:08 145.935-145.965
GONETS M04 11 Dec 10:33:59 10:42:27 51° 73° (ENE) 10:50:54
ZACube-1 11 Dec 10:34:34 10:36:56 15° 299° (WNW) 10:39:16 437.345
FUNcube-1 11 Dec 10:38:51 10:41:07 14° 299° (WNW) 10:43:22 145.935
CUBEBUG 1 11 Dec 10:39:18 10:41:17 13° 89° (E) 10:43:15 437.445
ESTCUBE 1 11 Dec 10:46:20 10:50:03 24° 94° (E) 10:53:45 437.505/2401.250
Oscar 19 11 Dec 10:47:04 10:48:43 11° 54° (NE) 10:50:22 437.125/150
UNISAT 6 11 Dec 10:48:36 10:51:03 14° 271° (W) 10:53:29 437.425
POPSAT HIP 1 11 Dec 10:51:47 10:56:04 87° 256° (WSW) 11:00:23 437.405
DANDE 11 Dec 10:52:08 10:53:51 13° 288° (WNW) 10:55:24 436.750
PCSat 11 Dec 10:52:53 10:58:16 70° 304° (NW) 11:03:43 145.827
BUGSAT 1 11 Dec 10:58:30 11:02:27 39° 70° (ENE) 11:06:26 437.445
BEESAT 3 11 Dec 11:00:03 11:03:25 25° 42° (NE) 11:06:46 437.485
VELOX 1 11 Dec 11:04:56 11:07:40 16° 90° (E) 11:10:23 145.980
HUMSAT D 11 Dec 11:08:51 11:12:23 29° 292° (WNW) 11:15:56 437.325/437.525
Gurwin Techsat 1B 11 Dec 11:29:16 11:32:13 15° 56° (NE) 11:35:11 435.225
BEESAT 2 11 Dec 11:41:56 11:45:32 30° 44° (NE) 11:49:07 435.950
NANOSAT C BR1 11 Dec 11:42:57 11:46:35 27° 265° (W) 11:50:14 145.865
RS-15 11 Dec 11:45:20 11:56:01 32° 7° (N) 12:06:43 29.354- 29.394
AO-7 11 Dec 11:46:19 11:49:31 13° 35° (NE) 11:52:43 29.400- 29.500
Cosmos 2499 11 Dec 11:53:30 12:01:44 55° 270° (W) 12:09:20 435.465 / 435.565
QB50P2 11 Dec 11:55:33 11:58:33 18° 268° (W) 12:01:34 145.880/145.840
POLYITAN 1 11 Dec 11:55:47 11:58:53 19° 268° (W) 12:02:00 437.675
DUCHIFAT 1 11 Dec 12:02:43 12:05:46 19° 268° (W) 12:08:49 145.980
AISAT 11 Dec 12:03:31 12:08:00 64° 102° (ESE) 12:12:25 437.250
QB50P1 11 Dec 12:07:33 12:10:03 15° 270° (W) 12:12:33 145.935-145.965
CUBEBUG 1 11 Dec 12:13:36 12:18:03 71° 286° (WNW) 12:22:27 437.445
JAS-2 11 Dec 12:18:12 12:21:14 14° 271° (W) 12:24:09 435.910
Oscar 19 11 Dec 12:22:00 12:27:06 71° 73° (ENE) 12:32:15 437.125/150
ESTCUBE 1 11 Dec 12:22:47 12:26:57 38° 291° (WNW) 12:31:08 437.505/2401.250
50 SAT 11 Dec 12:25:56 12:29:31 81° 284° (WNW) 12:33:06 437.505
SPROUT 11 Dec 12:28:22 12:32:41 77° 103° (ESE) 12:36:56 437.525
UKube-1 11 Dec 12:28:28 12:32:38 44° 99° (E) 12:36:47 .
GONETS M04 11 Dec 12:31:12 12:39:03 40° 275° (W) 12:46:56
DX 1 11 Dec 12:33:12 12:37:35 66° 102° (ESE) 12:41:57 434.975-435.025
BUGSAT 1 11 Dec 12:34:41 12:37:57 21° 267° (W) 12:41:14 437.445
BEESAT 3 11 Dec 12:37:24 12:41:11 41° 241° (WSW) 12:44:56 437.485
PCSat 11 Dec 12:39:09 12:42:41 17° 327° (NNW) 12:46:15 145.827
VELOX 1 11 Dec 12:40:05 12:44:30 58° 288° (WNW) 12:48:52 145.980
ITAMSAT 1 11 Dec 13:04:47 13:08:55 24° 62° (ENE) 13:13:03 435.822/435.867
Gurwin Techsat 1B 11 Dec 13:06:06 13:11:25 90° 75° (ENE) 13:16:47 435.225
BEESAT 2 11 Dec 13:19:42 13:23:20 33° 243° (WSW) 13:26:59 435.950
AIST 2 11 Dec 13:24:53 13:27:28 15° 33° (NNE) 13:30:02 435.215
TISAT 1 11 Dec 13:28:42 13:32:52 57° 100° (E) 13:36:59 437.305
AO-7 11 Dec 13:32:28 13:40:09 44° 59° (ENE) 13:47:53 29.400- 29.500
ITUPSAT 1 11 Dec 13:38:57 13:41:48 16° 90° (E) 13:44:39 437.325
AISAT 11 Dec 13:41:14 13:43:57 16° 300° (WNW) 13:46:41 437.250
M-CUBED/EXP-1 PRIME 11 Dec 13:45:43 13:47:49 13° 93° (E) 13:49:53 437.505
RS-15 11 Dec 13:59:58 14:12:07 55° 39° (NE) 14:23:57 29.354- 29.394
ISS 11 Dec 14:02:37 14:05:31 30° 141° (SE) 14:08:28 145.825
Oscar 19 11 Dec 14:03:49 14:06:57 16° 271° (W) 14:10:07 437.125/150
UKube-1 11 Dec 14:05:09 14:08:24 21° 297° (WNW) 14:11:38 .
SPROUT 11 Dec 14:06:07 14:08:00 13° 301° (WNW) 14:09:51 437.525
DX 1 11 Dec 14:10:43 14:13:16 15° 300° (WNW) 14:15:48 434.975-435.025
SWISSCUBE 11 Dec 14:40:05 14:44:51 68° 102° (ESE) 14:49:34 437.505
ITAMSAT 1 11 Dec 14:43:00 14:48:04 51° 260° (W) 14:53:10 435.822/435.867
BEESAT 11 Dec 14:43:28 14:48:13 66° 102° (ESE) 14:52:57 436.000
O/OREOS (USA 219) 11 Dec 14:48:13 14:52:42 62° 111° (ESE) 14:57:12 437.305
Gurwin Techsat 1B 11 Dec 14:49:46 14:52:07 13° 273° (W) 14:54:27 435.225
MOZHAYETS 4 11 Dec 14:55:51 14:59:35 24° 94° (E) 15:03:17
HORYU 2 11 Dec 14:58:32 15:00:12 12° 57° (ENE) 15:01:52 437.375
AUBIESAT-1 11 Dec 15:00:40 15:05:10 59° 106° (ESE) 15:09:25 437.475
AIST 2 11 Dec 15:02:22 15:06:37 80° 53° (NE) 15:10:51 435.215
TISAT 1 11 Dec 15:05:29 15:08:04 16° 299° (WNW) 15:10:38 437.305
ITUPSAT 1 11 Dec 15:15:22 15:20:05 65° 288° (WNW) 15:24:48 437.325
BRITE-PL 11 Dec 15:15:50 15:19:19 22° 62° (ENE) 15:23:01 437.365/2234.400
M-CUBED/EXP-1 PRIME 11 Dec 15:18:12 15:22:52 78° 290° (WNW) 15:27:16 437.505
AO-7 11 Dec 15:24:51 15:32:50 50° 259° (W) 15:40:54 29.400- 29.500
NOAA 15 11 Dec 15:28:53 15:30:08 11° 52° (NE) 15:31:22 137.62
ISS 11 Dec 15:38:40 15:41:54 52° 339° (NNW) 15:45:10 145.825
Cubesat XI-IV 11 Dec 15:52:01 15:55:10 16° 56° (ENE) 15:58:20 437.490
GOMX 1 11 Dec 15:57:40 16:01:38 26° 63° (ENE) 16:05:50 467.674
STARS 11 Dec 16:06:49 16:10:26 24° 94° (E) 16:14:01 437.465
RS-15 11 Dec 16:12:58 16:24:58 60° 245° (WSW) 16:36:35 29.354- 29.394
PCSat 11 Dec 16:14:19 16:14:53 10° 20° (NNE) 16:15:28 145.827
KKS-1 11 Dec 16:17:34 16:22:03 65° 102° (ESE) 16:26:28 437.445
SWISSCUBE 11 Dec 16:19:07 16:22:07 17° 300° (WNW) 16:25:07 437.505
BEESAT 11 Dec 16:22:25 16:25:30 17° 300° (WNW) 16:28:34 436.000
NOAA 18 11 Dec 16:24:22 16:28:24 21° 58° (ENE) 16:32:26 137.9125
O/OREOS (USA 219) 11 Dec 16:29:20 16:32:32 19° 310° (NW) 16:35:44 437.305
HORYU 2 11 Dec 16:31:34 16:36:04 90° 29° (NNE) 16:40:34 437.375
MOZHAYETS 4 11 Dec 16:32:38 16:36:52 38° 291° (WNW) 16:41:04
Cosmos 2491 11 Dec 16:35:33 16:43:50 45° 71° (ENE) 16:52:04 435.465 / 435.565
AUBIESAT-1 11 Dec 16:35:54 16:39:06 19° 305° (NW) 16:42:13 437.475
AIST 2 11 Dec 16:42:43 16:44:30 12° 251° (WSW) 16:46:16 435.215
CUBESAT XI-V 11 Dec 16:51:37 16:56:14 55° 100° (E) 17:00:50 437.345
BRITE-PL 11 Dec 16:53:09 16:57:28 46° 263° (W) 17:02:09 437.365/2234.400
M-CUBED/EXP-1 PRIME 11 Dec 16:54:36 16:56:29 12° 310° (NW) 16:58:20 437.505
CUTE-I 11 Dec 17:01:17 17:06:31 56° 70° (ENE) 17:11:46 437.470
HO-68 11 Dec 17:03:39 17:08:44 22° 52° (NE) 17:13:51 435.675
NOAA 15 11 Dec 17:03:44 17:08:54 64° 71° (ENE) 17:14:07 137.62
YUBILEINY 11 Dec 17:05:14 17:11:53 25° 79° (E) 17:18:35 435.215
DOVE 4 11 Dec 17:13:08 17:18:00 55° 71° (ENE) 17:23:07 437.250
ISS 11 Dec 17:15:55 17:18:52 29° 359° (N) 17:21:49 145.825
LilacSat-2 11 Dec 17:18:35 17:22:25 81° 78° (ENE) 17:26:15 437.200
Cubesat XI-IV 11 Dec 17:29:08 17:34:31 87° 252° (WSW) 17:39:57 437.490
GOMX 1 11 Dec 17:34:52 17:39:26 44° 263° (W) 17:44:21 467.674
STARS 11 Dec 17:42:48 17:46:52 36° 292° (WNW) 17:50:53 437.465
CUTE 1.7 + AOD 2 11 Dec 17:44:54 17:47:38 17° 63° (ENE) 17:50:22 437.475
CINEMA 3 11 Dec 17:46:37 17:51:05 33° 67° (ENE) 17:55:33 145.822/145.860
CUSAT 1 11 Dec 17:54:08 17:55:07 11° 68° (ENE) 17:56:09 437.405
PCSat 11 Dec 17:55:19 18:00:09 31° 44° (NE) 18:04:56 145.827
KKS-1 11 Dec 17:55:24 17:58:07 16° 300° (WNW) 18:00:48 437.445
NOAA 18 11 Dec 18:03:00 18:08:31 69° 257° (WSW) 18:14:06 137.9125
CANX-2 11 Dec 18:03:10 18:06:48 29° 68° (ENE) 18:10:26 2200.000
Cosmos 2504 11 Dec 18:06:44 18:13:56 31° 81° (E) 18:21:21 435.465 / 435.565
STRAND 1 11 Dec 18:08:47 18:11:22 14° 88° (E) 18:13:56 437.568
COMPASS 1 11 Dec 18:14:51 18:17:26 16° 63° (ENE) 18:20:01 437.405
SEEDS 11 Dec 18:15:41 18:19:00 24° 66° (ENE) 18:22:20 437.485
RS-15 11 Dec 18:29:27 18:34:33 14° 268° (W) 18:39:37 29.354- 29.394
CUBESAT XI-V 11 Dec 18:29:55 18:33:13 19° 298° (WNW) 18:36:31 437.345
Cosmos 2491 11 Dec 18:32:34 18:40:40 45° 273° (W) 18:48:46 435.465 / 435.565
SO-50 11 Dec 18:40:02 18:44:45 62° 122° (ESE) 18:49:23 436.795
CUTE-I 11 Dec 18:42:50 18:46:54 22° 268° (W) 18:51:00 437.470
NOAA 15 11 Dec 18:45:35 18:49:09 18° 269° (W) 18:52:44 137.62
Oscar 11 11 Dec 18:47:43 18:49:36 13° 60° (ENE) 18:51:30 145.826/435.025
AIST 1 11 Dec 18:47:48 18:52:00 53° 94° (E) 18:56:17
HO-68 11 Dec 18:48:21 18:55:33 88° 71° (ENE) 19:02:47 435.675
DOVE 4 11 Dec 18:52:18 18:56:03 21° 270° (W) 18:59:56 437.250
ISS 11 Dec 18:52:39 18:55:52 46° 19° (NNE) 18:59:04 145.825
CUBEBUG 2 11 Dec 18:58:47 19:03:15 44° 71° (ENE) 19:07:40 437.445
YUBILEINY 11 Dec 18:59:02 19:07:45 77° 280° (W) 19:16:35 435.215
AAUSAT CUBESAT 2 11 Dec 19:11:49 19:15:45 47° 72° (ENE) 19:19:43 437.432
Cubesat XI-IV 11 Dec 19:13:09 19:15:22 12° 273° (W) 19:17:36 437.490
CUTE 1.7 + AOD 2 11 Dec 19:19:00 19:23:05 51° 261° (W) 19:27:12 437.475
CINEMA 3 11 Dec 19:23:37 19:28:09 34° 265° (W) 19:32:43 145.822/145.860
UWE-3 11 Dec 19:27:45 19:32:16 55° 73° (ENE) 19:36:42 435.000/436.395/437.385
CUSAT 1 11 Dec 19:33:04 19:37:09 84° 260° (W) 19:42:35 437.405
PCSat 11 Dec 19:38:32 19:43:47 51° 245° (WSW) 19:49:00 145.827
CANX-2 11 Dec 19:39:00 19:42:37 28° 265° (W) 19:46:16 2200.000
DANDE 11 Dec 19:40:32 19:43:08 24° 76° (ENE) 19:46:14 436.750
STRAND 1 11 Dec 19:46:03 19:51:11 80° 285° (WNW) 19:56:16 437.568
COMPASS 1 11 Dec 19:48:34 19:52:35 52° 260° (W) 19:56:38 437.405
SEEDS 11 Dec 19:50:46 19:54:33 34° 264° (W) 19:58:22 437.485
ZACube-1 11 Dec 19:54:25 19:58:52 64° 74° (ENE) 20:03:15 437.345
Cosmos 2504 11 Dec 19:58:08 20:06:39 66° 283° (WNW) 20:15:34 435.465 / 435.565
FUNcube-1 11 Dec 19:58:22 20:02:49 65° 74° (ENE) 20:07:11 145.935
PRISM 11 Dec 20:07:10 20:08:52 12° 90° (E) 20:10:34 437.425
Oscar 11 11 Dec 20:20:50 20:25:08 78° 258° (WSW) 20:29:28 145.826/435.025
SO-50 11 Dec 20:21:42 20:25:35 25° 322° (NW) 20:29:27 436.795
HUMSAT D 11 Dec 20:26:51 20:30:17 25° 67° (ENE) 20:33:42 437.325/437.525
AIST 1 11 Dec 20:27:12 20:29:58 16° 293° (WNW) 20:32:45
ISS 11 Dec 20:29:14 20:32:20 37° 217° (SW) 20:35:25 145.825
CUBEBUG 2 11 Dec 20:36:18 20:40:02 23° 267° (W) 20:43:43 437.445
HO-68 11 Dec 20:39:26 20:44:11 19° 272° (W) 20:48:58 435.675
AAUSAT CUBESAT 2 11 Dec 20:48:53 20:51:30 16° 269° (W) 20:54:06 437.432
DELFI C3 11 Dec 20:49:27 20:53:22 80° 76° (ENE) 20:57:20 145.870
YUBILEINY 11 Dec 21:00:32 21:06:16 19° 304° (NW) 21:12:02 435.215
UNISAT 6 11 Dec 21:00:55 21:02:18 11° 87° (E) 21:03:41 437.425
UWE-3 11 Dec 21:05:58 21:09:01 17° 269° (W) 21:12:03 435.000/436.395/437.385
DANDE 11 Dec 21:23:30 21:25:43 17° 265° (W) 21:28:17 436.750
TIGRISAT 11 Dec 21:27:19 21:30:34 20° 92° (E) 21:33:45 435.000
STRAND 1 11 Dec 21:27:20 21:29:32 13° 305° (NW) 21:31:44 437.568
ANTELSAT 11 Dec 21:30:21 21:33:49 23° 93° (E) 21:37:14 437.575/2403.000
AISAT 11 Dec 21:31:19 21:31:34 10° 56° (NE) 21:31:50 437.250
ZACube-1 11 Dec 21:33:07 21:35:33 14° 270° (W) 21:37:57 437.345
FUNcube-1 11 Dec 21:37:07 21:39:27 14° 271° (W) 21:41:47 145.935
CUBEBUG 1 11 Dec 21:37:30 21:40:06 16° 61° (ENE) 21:42:43 437.445
PRISM 11 Dec 21:40:27 21:44:36 67° 286° (WNW) 21:48:44 437.425
ESTCUBE 1 11 Dec 21:48:06 21:52:00 30° 67° (ENE) 21:55:54 437.505/2401.250
Cosmos 2504 11 Dec 21:56:53 22:02:04 17° 307° (NW) 22:07:21 435.465 / 435.565
HUMSAT D 11 Dec 22:02:04 22:05:48 31° 264° (W) 22:09:31 437.325/437.525
VELOX 1 11 Dec 22:04:25 22:07:38 20° 62° (ENE) 22:10:52 145.980
UNISAT 6 11 Dec 22:35:13 22:39:35 75° 287° (WNW) 22:43:51 437.425
PHONESAT 2.4 11 Dec 22:35:13 22:37:14 19° 168° (SSE) 22:39:14 2401.200-2431.200
POPSAT HIP 1 11 Dec 22:35:52 22:37:45 13° 89° (E) 22:39:40 437.405
Cosmos 2499 11 Dec 22:40:03 22:47:02 28° 80° (E) 22:54:06 435.465 / 435.565
AISAT 11 Dec 23:02:48 23:07:13 76° 75° (ENE) 23:11:42 437.250
50 SAT 11 Dec 23:03:08 23:06:34 56° 73° (ENE) 23:10:02 437.505
TIGRISAT 11 Dec 23:03:21 23:07:27 41° 290° (WNW) 23:11:27 435.000
ANTELSAT 11 Dec 23:06:39 23:10:39 36° 291° (WNW) 23:14:34 437.575/2403.000
CUBEBUG 1 11 Dec 23:11:32 23:15:52 64° 259° (WSW) 23:20:17 437.445
O/OREOS (USA 219) 11 Dec 23:17:03 23:20:40 23° 53° (NE) 23:24:14 437.305
JAS-2 11 Dec 23:20:07 23:25:18 59° 101° (ESE) 23:30:50 435.910
SPROUT 11 Dec 23:23:40 23:27:59 79° 74° (ENE) 23:32:19 437.525
NANOSAT C BR1 11 Dec 23:24:07 23:28:05 38° 98° (E) 23:32:01 145.865
ESTCUBE 1 11 Dec 23:24:48 23:28:45 30° 264° (W) 23:32:44 437.505/2401.250
UKube-1 11 Dec 23:24:59 23:29:09 50° 71° (ENE) 23:33:22 .
DX 1 11 Dec 23:30:41 23:35:02 77° 74° (ENE) 23:39:26 434.975-435.025
QB50P2 11 Dec 23:36:20 23:40:32 61° 101° (E) 23:44:43 145.880/145.840
POLYITAN 1 11 Dec 23:36:41 23:40:52 57° 101° (E) 23:45:00 437.675
GONETS M04 11 Dec 23:37:57 23:46:18 53° 90° (E) 23:54:39
VELOX 1 11 Dec 23:39:29 23:43:46 48° 261° (W) 23:48:05 145.980
DUCHIFAT 1 11 Dec 23:42:45 23:46:55 56° 101° (E) 23:51:01 145.980
QB50P1 11 Dec 23:47:30 23:51:46 75° 103° (ESE) 23:55:58 145.935-145.965
PHONESAT 2.4 12 Dec 00:09:43 00:11:56 24° 184° (S) 00:14:09 2401.200-2431.200
POPSAT HIP 1 12 Dec 00:09:47 00:13:59 65° 287° (WNW) 00:18:09 437.405
BUGSAT 1 12 Dec 00:12:53 00:16:55 46° 99° (E) 00:20:52 437.445
SWISSCUBE 12 Dec 00:13:47 00:16:20 15° 58° (ENE) 00:18:54 437.505
AUBIESAT-1 12 Dec 00:15:54 00:18:27 15° 53° (NE) 00:21:03 437.475
BEESAT 12 Dec 00:17:13 00:19:40 14° 58° (ENE) 00:22:09 436.000
TISAT 1 12 Dec 00:22:11 00:26:20 58° 73° (ENE) 00:30:32 437.305
AO-85 12 Dec 00:23:23 00:28:08 53° 121° (ESE) 00:32:32 145.980
Cosmos 2499 12 Dec 00:30:35 00:39:19 74° 281° (W) 00:48:16 435.465 / 435.565
Oscar 19 12 Dec 00:31:48 00:35:40 21° 92° (E) 00:39:30 437.125/150
M-CUBED/EXP-1 PRIME 12 Dec 00:32:34 00:36:08 25° 58° (ENE) 00:39:51 437.505
50 SAT 12 Dec 00:39:53 00:40:13 10° 271° (W) 00:40:33 437.505
AISAT 12 Dec 00:42:33 00:44:14 12° 272° (W) 00:45:55 437.250
ITUPSAT 1 12 Dec 00:47:38 00:51:30 25° 64° (ENE) 00:55:24 437.325
O/OREOS (USA 219) 12 Dec 00:56:00 01:00:16 44° 252° (WSW) 01:04:30 437.305
NANOSAT C BR1 12 Dec 01:00:21 01:03:35 22° 295° (WNW) 01:06:49 145.865
UKube-1 12 Dec 01:02:39 01:05:29 17° 268° (W) 01:08:20 .
SPROUT 12 Dec 01:03:20 01:04:27 11° 272° (W) 01:05:34 437.525
JAS-2 12 Dec 01:06:14 01:10:05 21° 299° (WNW) 01:14:04 435.910
DX 1 12 Dec 01:10:22 01:11:46 11° 272° (W) 01:13:11 434.975-435.025
QB50P2 12 Dec 01:13:25 01:15:52 15° 299° (WNW) 01:18:19 145.880/145.840
POLYITAN 1 12 Dec 01:13:40 01:16:13 16° 299° (WNW) 01:18:46 437.675
DUCHIFAT 1 12 Dec 01:19:36 01:22:10 16° 298° (WNW) 01:24:41 145.980
Gurwin Techsat 1B 12 Dec 01:20:11 01:24:49 29° 95° (E) 01:29:25 435.225
QB50P1 12 Dec 01:25:04 01:26:56 13° 301° (WNW) 01:28:48 145.935-145.965
SO-50 12 Dec 01:29:25 01:32:52 21° 35° (NE) 01:36:16 436.795
GONETS M04 12 Dec 01:35:27 01:43:24 38° 291° (WNW) 01:51:25
KKS-1 12 Dec 01:45:14 01:46:16 11° 56° (NE) 01:47:19 437.445
PHONESAT 2.4 12 Dec 01:45:21 01:46:33 12° 200° (SSW) 01:47:44 2401.200-2431.200
AUBIESAT-1 12 Dec 01:47:51 01:52:11 80° 253° (WSW) 01:56:47 437.475
SWISSCUBE 12 Dec 01:48:44 01:53:29 81° 255° (WSW) 01:58:17 437.505
BUGSAT 1 12 Dec 01:49:03 01:51:56 18° 297° (WNW) 01:54:48 437.445
BEESAT 12 Dec 01:52:02 01:56:48 83° 256° (WSW) 02:01:36 436.000
MOZHAYETS 4 12 Dec 01:59:55 02:03:55 31° 67° (ENE) 02:07:56
TISAT 1 12 Dec 01:59:58 02:02:21 15° 270° (W) 02:04:44 437.305
AO-85 12 Dec 02:04:49 02:08:47 26° 318° (NW) 02:12:33 145.980
M-CUBED/EXP-1 PRIME 12 Dec 02:06:12 02:10:20 43° 257° (WSW) 02:14:43 437.505
Oscar 19 12 Dec 02:10:14 02:15:20 57° 289° (WNW) 02:20:26 437.125/150
ITUPSAT 1 12 Dec 02:24:37 02:29:08 42° 262° (W) 02:33:41 437.325
Cosmos 2499 12 Dec 02:28:17 02:34:09 19° 304° (NW) 02:40:06 435.465 / 435.565
BEESAT 3 12 Dec 02:30:44 02:33:12 16° 112° (ESE) 02:35:41 437.485
ITAMSAT 1 12 Dec 02:53:11 02:58:10 46° 99° (E) 03:03:07 435.822/435.867
Gurwin Techsat 1B 12 Dec 02:59:54 03:04:52 41° 293° (WNW) 03:09:49 435.225
STARS 12 Dec 03:05:30 03:09:22 30° 67° (ENE) 03:13:15 437.465
SO-50 12 Dec 03:09:19 03:13:52 76° 237° (WSW) 03:18:19 436.795
YUBILEINY 12 Dec 03:11:16 03:15:56 15° 52° (NE) 03:20:35 435.215
BEESAT 2 12 Dec 03:13:44 03:16:45 21° 114° (ESE) 03:19:47 435.950
KKS-1 12 Dec 03:17:35 03:22:04 80° 73° (ENE) 03:26:34 437.445
AO-7 12 Dec 03:23:06 03:31:13 50° 101° (E) 03:39:17 29.400- 29.500
MOZHAYETS 4 12 Dec 03:37:00 03:41:03 30° 265° (W) 03:45:06
Cosmos 2504 12 Dec 03:56:55 04:01:09 14° 50° (NE) 04:05:16 435.465 / 435.565
CUBESAT XI-V 12 Dec 03:57:02 04:01:35 70° 74° (ENE) 04:06:12 437.345
BEESAT 3 12 Dec 04:06:35 04:10:25 54° 310° (NW) 04:14:19 437.485
HORYU 2 12 Dec 04:21:31 04:23:51 14° 90° (E) 04:26:10 437.375
